Location: Le Castellard
(44.1862°N, 6.1301°E)
Time: 23:12:39
(UTC+00:00)

Cosmos 2366 rocket - Pass Details

Date: 18 January 2020
Orbit: 956 x 996 km, 82.9° (Epoch: 23 February)

Event Time Altitude Azimuth Distance (km) Brightness Sun altitude
Rises 05:51:59 0° 352° (N) 3,715 6.8 -13.1°
Reaches altitude 10° 05:54:31 10° 353° (N) 2,766 6.1 -12.7°
Maximum altitude 06:00:53 87° 81° (E) 1,004 4.1 -11.6°
Drops below altitude 10° 06:07:15 10° 173° (S) 2,755 6.7 -10.5°
Sets 06:09:45 0° 173° (S) 3,699 7.4 -10.1°
